• In Denmark
  • List of Countries
  • For 7 days
  • Water Temperature
  • Satellite Maps
  • Weather Map
  • Weather Widgets
  • user-avatar
    Login

    Hourly Weather Besagash

    Today, 16 October, Tuesday

    Time Temperature Precipitation Wind Pressure Humidity
    00:00 +10°C° 0 mm 7 mps 727 mmHg 44%
    01:00 +10°C° 0 mm 7 mps 728 mmHg 47%
    02:00 +9°C° 0 mm 6 mps 728 mmHg 50%
    03:00 +9°C° 0 mm 6 mps 729 mmHg 54%
    04:00 +9°C° 0 mm 6 mps 730 mmHg 57%
    05:00 +8°C° 0 mm 5 mps 731 mmHg 60%
    06:00 +8°C° 0.2 mm 5 mps 731 mmHg 63%
    07:00 +8°C° 0.2 mm 4 mps 732 mmHg 65%
    08:00 +8°C° 0.2 mm 4 mps 732 mmHg 67%
    09:00 +8°C° 0.3 mm 4 mps 732 mmHg 66%
    10:00 +8°C° 0.3 mm 5 mps 733 mmHg 64%
    11:00 +8°C° 0.3 mm 5 mps 733 mmHg 62%
    12:00 +8°C° 0 mm 4 mps 733 mmHg 59%
    13:00 +8°C° 0 mm 4 mps 733 mmHg 56%
    14:00 +9°C° 0 mm 3 mps 733 mmHg 53%
    15:00 +9°C° 0 mm 3 mps 733 mmHg 53%
    16:00 +9°C° 0 mm 2 mps 733 mmHg 53%
    17:00 +8°C° 0 mm 2 mps 733 mmHg 53%
    18:00 +8°C° 0 mm 2 mps 733 mmHg 54%
    19:00 +8°C° 0 mm 3 mps 734 mmHg 55%
    20:00 +8°C° 0 mm 3 mps 734 mmHg 56%
    21:00 +6°C° 0.1 mm 4 mps 734 mmHg 58%
    22:00 +6°C° 0.1 mm 4 mps 734 mmHg 59%
    23:00 +6°C° 0.1 mm 4 mps 734 mmHg 61%

    Tomorrow, 17 October, Wednesday

    Time Temperature Precipitation Wind Pressure Humidity
    00:00 +5°C° 0.4 mm 5 mps 734 mmHg 62%
    01:00 +5°C° 0.4 mm 5 mps 735 mmHg 63%
    02:00 +5°C° 0.4 mm 5 mps 735 mmHg 65%
    03:00 +3°C° 0.4 mm 5 mps 735 mmHg 66%
    04:00 +3°C° 0.4 mm 6 mps 736 mmHg 67%
    05:00 +3°C° 0.4 mm 6 mps 736 mmHg 68%
    06:00 +3°C° 0.2 mm 6 mps 737 mmHg 68%
    07:00 +3°C° 0.2 mm 6 mps 737 mmHg 67%
    08:00 +3°C° 0.2 mm 7 mps 738 mmHg 66%
    09:00 +3°C° 0 mm 7 mps 738 mmHg 63%
    10:00 +4°C° 0 mm 7 mps 738 mmHg 59%
    11:00 +4°C° 0 mm 7 mps 738 mmHg 55%
    12:00 +4°C° 0 mm 7 mps 738 mmHg 54%
    13:00 +4°C° 0 mm 7 mps 738 mmHg 52%
    14:00 +5°C° 0 mm 7 mps 738 mmHg 50%
    15:00 +4°C° 0 mm 6 mps 739 mmHg 51%
    16:00 +5°C° 0 mm 5 mps 739 mmHg 52%
    17:00 +4°C° 0 mm 4 mps 739 mmHg 52%
    18:00 +4°C° 0 mm 4 mps 739 mmHg 54%
    19:00 +3°C° 0 mm 4 mps 739 mmHg 56%
    20:00 +3°C° 0 mm 4 mps 740 mmHg 58%
    21:00 +3°C° 0 mm 4 mps 740 mmHg 57%
    22:00 +2°C° 0 mm 5 mps 740 mmHg 56%
    23:00 +1°C° 0 mm 5 mps 740 mmHg 55%

    Day after tomorrow, 18 October, Thursday

    Time Temperature Precipitation Wind Pressure Humidity
    00:00 +1°C° 0 mm 5 mps 739 mmHg 55%
    01:00 +1°C° 0 mm 4 mps 739 mmHg 55%
    02:00 +1°C° 0 mm 4 mps 739 mmHg 55%
    03:00 0°C° 0 mm 4 mps 739 mmHg 55%
    04:00 0°C° 0 mm 4 mps 739 mmHg 55%
    05:00 +1°C° 0 mm 3 mps 739 mmHg 55%
    06:00 +2°C° 0 mm 3 mps 739 mmHg 52%
    07:00 +2°C° 0 mm 3 mps 739 mmHg 50%
    08:00 +3°C° 0 mm 3 mps 739 mmHg 47%
    09:00 +4°C° 0 mm 3 mps 738 mmHg 44%
    10:00 +5°C° 0 mm 3 mps 738 mmHg 42%
    11:00 +7°C° 0 mm 3 mps 737 mmHg 39%
    12:00 +7°C° 0 mm 3 mps 737 mmHg 38%
    13:00 +7°C° 0 mm 4 mps 736 mmHg 37%
    14:00 +7°C° 0 mm 4 mps 735 mmHg 36%
    15:00 +6°C° 0 mm 4 mps 735 mmHg 39%
    16:00 +6°C° 0 mm 4 mps 735 mmHg 43%
    17:00 +5°C° 0 mm 3 mps 735 mmHg 46%
    18:00 +5°C° 0 mm 4 mps 735 mmHg 47%
    19:00 +5°C° 0 mm 4 mps 735 mmHg 49%
    20:00 +3°C° 0 mm 5 mps 735 mmHg 50%
    21:00 +3°C° 0 mm 5 mps 734 mmHg 49%
    22:00 +5°C° 0 mm 5 mps 734 mmHg 47%
    23:00 +5°C° 0 mm 5 mps 733 mmHg 46%

    19 October, Friday

    Time Temperature Precipitation Wind Pressure Humidity
    00:00 +5°C° 0 mm 5 mps 733 mmHg 45%
    01:00 +5°C° 0 mm 4 mps 733 mmHg 43%
    02:00 +5°C° 0 mm 4 mps 732 mmHg 42%
    03:00 +5°C° 0 mm 4 mps 732 mmHg 41%
    04:00 +5°C° 0 mm 4 mps 732 mmHg 41%
    05:00 +5°C° 0 mm 4 mps 732 mmHg 40%
    06:00 +5°C° 0 mm 3 mps 732 mmHg 40%
    07:00 +7°C° 0 mm 3 mps 733 mmHg 39%
    08:00 +7°C° 0 mm 3 mps 733 mmHg 39%
    09:00 +8°C° 0.3 mm 3 mps 733 mmHg 41%
    10:00 +8°C° 0.3 mm 3 mps 733 mmHg 44%
    11:00 +8°C° 0.3 mm 3 mps 732 mmHg 46%
    12:00 +7°C° 0.7 mm 4 mps 732 mmHg 50%
    13:00 +7°C° 0.7 mm 4 mps 732 mmHg 54%
    14:00 +7°C° 0.7 mm 4 mps 732 mmHg 58%
    15:00 +7°C° 0.6 mm 4 mps 733 mmHg 62%
    16:00 +7°C° 0.6 mm 4 mps 733 mmHg 65%
    17:00 +7°C° 0.6 mm 4 mps 733 mmHg 69%
    18:00 +6°C° 0.3 mm 4 mps 734 mmHg 70%
    19:00 +6°C° 0.3 mm 4 mps 734 mmHg 71%
    20:00 +6°C° 0.3 mm 4 mps 734 mmHg 72%
    21:00 +6°C° 0.5 mm 4 mps 734 mmHg 72%
    22:00 +6°C° 0.5 mm 4 mps 734 mmHg 72%
    23:00 +6°C° 0.5 mm 4 mps 735 mmHg 71%

    20 October, Saturday

    Time Temperature Precipitation Wind Pressure Humidity
    00:00 +6°C° 0.6 mm 4 mps 735 mmHg 70%
    01:00 +6°C° 0.6 mm 4 mps 735 mmHg 69%
    02:00 +5°C° 0.6 mm 4 mps 735 mmHg 68%
    03:00 +5°C° 0.3 mm 4 mps 736 mmHg 68%
    04:00 +5°C° 0.3 mm 4 mps 736 mmHg 68%
    05:00 +5°C° 0.3 mm 4 mps 736 mmHg 68%
    06:00 +5°C° 0.1 mm 4 mps 737 mmHg 66%
    07:00 +5°C° 0.1 mm 4 mps 737 mmHg 65%
    08:00 +5°C° 0.1 mm 5 mps 737 mmHg 63%
    09:00 +6°C° 0.1 mm 5 mps 738 mmHg 61%
    10:00 +6°C° 0.1 mm 5 mps 738 mmHg 58%
    11:00 +7°C° 0.1 mm 6 mps 738 mmHg 56%
    12:00 +7°C° 0.2 mm 5 mps 738 mmHg 55%
    13:00 +8°C° 0.2 mm 5 mps 738 mmHg 54%
    14:00 +8°C° 0.2 mm 5 mps 738 mmHg 53%
    15:00 +7°C° 0.2 mm 4 mps 738 mmHg 55%
    16:00 +8°C° 0.2 mm 3 mps 738 mmHg 58%
    17:00 +7°C° 0.2 mm 2 mps 739 mmHg 60%
    18:00 +7°C° 0 mm 2 mps 739 mmHg 63%
    19:00 +7°C° 0 mm 2 mps 740 mmHg 65%
    20:00 +7°C° 0 mm 1 mps 740 mmHg 68%
    21:00 +7°C° 0 mm 1 mps 740 mmHg 69%
    22:00 +6°C° 0 mm 2 mps 740 mmHg 69%
    23:00 +5°C° 0 mm 2 mps 740 mmHg 70%

    21 October, Sunday

    Time Temperature Precipitation Wind Pressure Humidity
    00:00 +5°C° 0 mm 2 mps 740 mmHg 71%
    01:00 +4°C° 0 mm 3 mps 740 mmHg 71%
    02:00 +4°C° 0 mm 3 mps 739 mmHg 72%
    03:00 +4°C° 0 mm 3 mps 739 mmHg 72%
    04:00 +4°C° 0 mm 3 mps 740 mmHg 71%
    05:00 +4°C° 0 mm 3 mps 740 mmHg 71%
    06:00 +4°C° 0 mm 3 mps 740 mmHg 69%
    07:00 +5°C° 0 mm 3 mps 740 mmHg 67%
    08:00 +5°C° 0 mm 3 mps 740 mmHg 66%
    09:00 +8°C° 0 mm 3 mps 740 mmHg 61%
    10:00 +9°C° 0 mm 3 mps 739 mmHg 57%
    11:00 +10°C° 0 mm 3 mps 739 mmHg 53%
    12:00 +10°C° 0 mm 3 mps 739 mmHg 50%
    13:00 +11°C° 0 mm 3 mps 739 mmHg 48%
    14:00 +12°C° 0 mm 3 mps 738 mmHg 45%
    15:00 +11°C° 0 mm 3 mps 738 mmHg 50%
    16:00 +10°C° 0 mm 3 mps 738 mmHg 54%
    17:00 +9°C° 0 mm 3 mps 738 mmHg 58%
    18:00 +9°C° 0 mm 3 mps 738 mmHg 60%
    19:00 +8°C° 0 mm 3 mps 738 mmHg 61%
    20:00 +8°C° 0 mm 3 mps 739 mmHg 63%
    21:00 +7°C° 0 mm 3 mps 738 mmHg 63%
    22:00 +7°C° 0 mm 3 mps 738 mmHg 63%
    23:00 +7°C° 0 mm 3 mps 738 mmHg 63%
    Show more